QPF
0.05 0.03 0.02 0.02 0.03 0.03 0.03 0.04 0.04 0.04 0.03 0.03 0.03 0.05 0.07 0.08 0.07 0.06 0.06 0.07 0.06 0.05 0.04 0.05 0.08 0.11 0.12 0.14 0.17 0.12 0.08 0.05 0.06 0.04 0.02 0.02 0.03 0.03 0.05 0.06 0.07 0.07 0.06
0.04 0.05 0.02 0.02 0.03 0.04 0.04 0.05 0.04 0.04 0.03 0.03 0.03 0.05 0.07 0.09 0.09 0.07 0.06 0.07 0.10 0.06 0.05 0.05 0.08 0.10 0.11 0.14 0.14 0.08 0.06 0.04 0.04 0.02 0.02 0.03 0.04 0.04 0.05 0.06 0.08 0.10 0.07
0.02 0.03 0.02 0.02 0.03 0.04 0.04 0.05 0.04 0.04 0.04 0.03 0.03 0.06 0.10 0.12 0.10 0.08 0.08 0.07 0.11 0.08 0.07 0.07 0.09 0.10 0.12 0.13 0.09 0.05 0.05 0.04 0.04 0.05 0.05 0.06 0.04 0.03 0.04 0.05 0.05 0.06 0.05
0.01 0.03 0.04 0.03 0.03 0.03 0.03 0.03 0.03 0.05 0.05 0.05 0.04 0.06 0.12 0.14 0.11 0.09 0.08 0.08 0.11 0.08 0.09 0.10 0.12 0.17 0.16 0.10 0.07 0.06 0.05 0.04 0.06 0.07 0.08 0.09 0.05 0.04 0.04 0.04 0.04 0.04 0.05
0.01 0.02 0.04 0.03 0.03 0.03 0.02 0.02 0.03 0.04 0.05 0.06 0.09 0.11 0.15 0.15 0.11 0.09 0.09 0.09 0.10 0.10 0.10 0.14 0.20 0.22 0.16 0.08 0.06 0.06 0.07 0.06 0.06 0.08 0.09 0.10 0.09 0.06 0.03 0.03 0.03 0.04 0.04
0.01 0.01 0.02 0.02 0.02 0.02 0.02 0.02 0.03 0.03 0.04 0.05 0.08 0.12 0.17 0.17 0.13 0.12 0.12 0.15 0.12 0.11 0.11 0.13 0.21 0.18 0.13 0.09 0.08 0.07 0.07 0.06 0.07 0.09 0.09 0.09 0.09 0.07 0.04 0.03 0.04 0.04 0.04
0.01 0.01 0.02 0.02 0.02 0.02 0.01 0.01 0.02 0.02 0.02 0.04 0.06 0.07 0.12 0.19 0.17 0.13 0.14 0.16 0.15 0.11 0.10 0.14 0.15 0.14 0.14 0.11 0.11 0.10 0.09 0.09 0.11 0.12 0.10 0.10 0.08 0.06 0.05 0.04 0.05 0.05 0.04
0.00 0.01 0.02 0.02 0.02 0.02 0.02 0.01 0.02 0.02 0.02 0.04 0.04 0.05 0.07 0.10 0.10 0.08 0.08 0.09 0.08 0.09 0.11 0.14 0.15 0.18 0.16 0.14 0.11 0.10 0.12 0.12 0.10 0.09 0.08 0.09 0.08 0.06 0.05 0.05 0.05 0.06 0.05
0.01 0.01 0.02 0.02 0.02 0.02 0.02 0.01 0.02 0.03 0.04 0.04 0.04 0.04 0.04 0.05 0.07 0.06 0.06 0.06 0.05 0.07 0.09 0.11 0.13 0.14 0.13 0.12 0.11 0.14 0.15 0.11 0.08 0.07 0.08 0.09 0.07 0.04 0.04 0.05 0.06 0.06 0.06
0.02 0.02 0.02 0.03 0.04 0.04 0.03 0.02 0.03 0.04 0.04 0.05 0.04 0.05 0.04 0.04 0.06 0.06 0.05 0.06 0.07 0.07 0.08 0.09 0.09 0.08 0.09 0.09 0.09 0.13 0.14 0.09 0.04 0.03 0.04 0.06 0.05 0.03 0.03 0.04 0.04 0.05 0.06
0.06 0.03 0.03 0.03 0.04 0.05 0.04 0.02 0.03 0.03 0.02 0.04 0.05 0.05 0.06 0.09 0.11 0.12 0.08 0.07 0.08 0.08 0.09 0.09 0.09 0.11 0.10 0.10 0.09 0.13 0.12 0.06 0.04 0.04 0.03 0.04 0.04 0.04 0.04 0.05 0.06 0.06 0.04
0.07 0.04 0.03 0.03 0.03 0.04 0.04 0.05 0.07 0.06 0.04 0.07 0.09 0.09 0.12 0.11 0.11 0.13 0.14 0.11 0.10 0.10 0.11 0.12 0.12 0.11 0.12 0.11 0.11 0.15 0.10 0.07 0.08 0.08 0.08 0.10 0.09 0.06 0.06 0.06 0.07 0.08 0.05
0.05 0.03 0.02 0.02 0.03 0.04 0.05 0.06 0.07 0.08 0.08 0.10 0.11 0.09 0.12 0.12 0.13 0.18 0.18 0.18 0.15 0.13 0.13 0.13 0.13 0.11 0.13 0.11 0.10 0.10 0.09 0.10 0.08 0.09 0.11 0.12 0.10 0.06 0.06 0.06 0.06 0.07 0.07
0.05 0.05 0.04 0.04 0.04 0.05 0.04 0.04 0.05 0.06 0.06 0.09 0.10 0.11 0.11 0.12 0.16 0.19 0.20 0.21 0.21 0.18 0.18 0.15 0.14 0.10 0.10 0.09 0.09 0.09 0.09 0.11 0.10 0.11 0.11 0.07 0.06 0.05 0.05 0.05 0.05 0.05 0.06
0.03 0.04 0.04 0.05 0.05 0.05 0.04 0.05 0.05 0.05 0.04 0.05 0.11 0.18 0.18 0.14 0.12 0.16 0.19 0.19 0.18 0.19 0.19 0.18 0.16 0.13 0.10 0.09 0.08 0.08 0.07 0.07 0.09 0.11 0.11 0.07 0.05 0.04 0.05 0.06 0.06 0.06 0.06
0.02 0.03 0.02 0.03 0.03 0.03 0.03 0.04 0.06 0.06 0.05 0.04 0.06 0.13 0.19 0.13 0.11 0.17 0.22 0.21 0.17 0.14 0.18 0.18 0.18 0.16 0.11 0.10 0.09 0.07 0.06 0.08 0.09 0.07 0.08 0.07 0.04 0.03 0.04 0.06 0.07 0.08 0.07
0.01 0.02 0.02 0.01 0.02 0.02 0.02 0.04 0.05 0.07 0.07 0.05 0.05 0.11 0.14 0.15 0.17 0.19 0.20 0.20 0.16 0.12 0.14 0.17 0.18 0.17 0.15 0.14 0.12 0.08 0.07 0.09 0.09 0.07 0.05 0.05 0.05 0.04 0.05 0.06 0.07 0.08 0.09
0.01 0.01 0.02 0.02 0.01 0.02 0.02 0.02 0.03 0.04 0.06 0.06 0.04 0.07 0.12 0.12 0.09 0.10 0.12 0.12 0.13 0.14 0.14 0.15 0.16 0.20 0.21 0.19 0.15 0.11 0.09 0.11 0.10 0.07 0.05 0.05 0.05 0.04 0.06 0.06 0.06 0.07 0.08
0.01 0.01 0.01 0.03 0.03 0.03 0.03 0.02 0.04 0.05 0.05 0.06 0.07 0.09 0.09 0.06 0.05 0.05 0.06 0.06 0.08 0.11 0.11 0.12 0.17 0.18 0.20 0.20 0.16 0.13 0.10 0.11 0.14 0.10 0.10 0.08 0.05 0.05 0.05 0.07 0.07 0.06 0.06
0.01 0.01 0.01 0.02 0.03 0.04 0.03 0.04 0.05 0.04 0.02 0.03 0.05 0.09 0.09 0.08 0.06 0.07 0.05 0.04 0.04 0.06 0.07 0.08 0.09 0.10 0.11 0.12 0.10 0.10 0.10 0.11 0.15 0.14 0.11 0.10 0.08 0.07 0.06 0.07 0.09 0.11 0.11
0.00 0.01 0.01 0.02 0.02 0.03 0.03 0.03 0.05 0.04 0.03 0.02 0.02 0.05 0.08 0.09 0.10 0.11 0.06 0.06 0.05 0.06 0.04 0.05 0.06 0.07 0.05 0.05 0.06 0.07 0.07 0.09 0.10 0.09 0.09 0.09 0.08 0.08 0.09 0.08 0.10 0.14 0.16
0.00 0.01 0.02 0.02 0.03 0.03 0.03 0.02 0.03 0.03 0.03 0.02 0.02 0.05 0.06 0.08 0.09 0.07 0.05 0.04 0.03 0.06 0.04 0.04 0.06 0.06 0.05 0.04 0.07 0.09 0.10 0.10 0.08 0.06 0.05 0.06 0.05 0.06 0.05 0.06 0.08 0.10 0.13
0.01 0.01 0.02 0.02 0.03 0.02 0.02 0.02 0.03 0.04 0.04 0.04 0.03 0.05 0.05 0.04 0.04 0.04 0.03 0.03 0.03 0.03 0.05 0.06 0.05 0.07 0.06 0.05 0.05 0.08 0.11 0.11 0.10 0.08 0.05 0.05 0.05 0.06 0.07 0.07 0.08 0.09 0.10
0.01 0.01 0.01 0.02 0.03 0.03 0.03 0.04 0.05 0.07 0.07 0.06 0.04 0.04 0.04 0.02 0.02 0.02 0.02 0.02 0.02 0.02 0.04 0.03 0.04 0.06 0.05 0.04 0.05 0.04 0.05 0.08 0.08 0.08 0.06 0.06 0.05 0.05 0.05 0.05 0.06 0.09 0.08
0.01 0.02 0.02 0.03 0.03 0.03 0.03 0.04 0.04 0.04 0.04 0.04 0.04 0.05 0.04 0.04 0.02 0.02 0.02 0.02 0.03 0.03 0.02 0.02 0.03 0.03 0.03 0.03 0.03 0.03 0.04 0.05 0.05 0.04 0.05 0.04 0.05 0.05 0.05 0.04 0.04 0.05 0.06
0.02 0.02 0.02 0.03 0.03 0.02 0.02 0.02 0.02 0.04 0.05 0.05 0.05 0.04 0.03 0.04 0.03 0.02 0.02 0.03 0.03 0.04 0.03 0.02 0.02 0.03 0.03 0.03 0.03 0.03 0.04 0.04 0.04 0.04 0.04 0.04 0.04 0.03 0.04 0.04 0.04 0.04 0.04
MSLP
1009.63 1009.36 1009.20 1009.22 1009.45 1009.83 1010.31 1010.78 1011.17 1011.44 1011.59 1011.65 1011.67 1011.71 1011.80 1011.96 1012.18 1012.42 1012.64 1012.82 1012.93 1012.98 1013.00 1013.01 1013.02 1013.06 1013.11 1013.17 1013.20 1013.22 1013.20 1013.17 1013.15 1013.16 1013.23 1013.34 1013.51 1013.70 1013.90 1014.08 1014.23 1014.36 1014.48
1009.45 1009.27 1009.21 1009.34 1009.63 1010.05 1010.52 1010.96 1011.31 1011.55 1011.68 1011.75 1011.81 1011.91 1012.07 1012.30 1012.55 1012.80 1013.00 1013.14 1013.20 1013.22 1013.20 1013.20 1013.21 1013.25 1013.31 1013.35 1013.37 1013.36 1013.31 1013.25 1013.20 1013.20 1013.26 1013.38 1013.56 1013.76 1013.97 1014.14 1014.29 1014.40 1014.51
1009.26 1009.19 1009.25 1009.48 1009.86 1010.32 1010.78 1011.19 1011.49 1011.69 1011.80 1011.87 1011.96 1012.10 1012.31 1012.56 1012.83 1013.06 1013.23 1013.33 1013.36 1013.35 1013.33 1013.33 1013.36 1013.41 1013.47 1013.50 1013.49 1013.43 1013.33 1013.22 1013.14 1013.13 1013.19 1013.33 1013.53 1013.76 1013.97 1014.16 1014.30 1014.42 1014.51
1009.11 1009.15 1009.34 1009.68 1010.13 1010.63 1011.09 1011.47 1011.73 1011.88 1011.97 1012.04 1012.14 1012.30 1012.52 1012.78 1013.03 1013.24 1013.37 1013.43 1013.44 1013.42 1013.41 1013.44 1013.49 1013.56 1013.62 1013.62 1013.57 1013.44 1013.28 1013.12 1013.00 1012.97 1013.04 1013.21 1013.44 1013.69 1013.94 1014.14 1014.30 1014.42 1014.52
1009.05 1009.21 1009.51 1009.95 1010.46 1010.99 1011.44 1011.79 1012.01 1012.12 1012.18 1012.24 1012.35 1012.52 1012.74 1012.98 1013.20 1013.37 1013.46 1013.49 1013.49 1013.48 1013.50 1013.55 1013.64 1013.72 1013.77 1013.74 1013.62 1013.43 1013.19 1012.97 1012.81 1012.77 1012.85 1013.04 1013.31 1013.60 1013.88 1014.11 1014.28 1014.41 1014.52
1009.13 1009.37 1009.76 1010.27 1010.82 1011.35 1011.79 1012.10 1012.28 1012.37 1012.41 1012.47 1012.58 1012.75 1012.96 1013.18 1013.36 1013.49 1013.55 1013.56 1013.55 1013.55 1013.60 1013.69 1013.80 1013.90 1013.92 1013.85 1013.67 1013.40 1013.09 1012.81 1012.62 1012.56 1012.66 1012.88 1013.18 1013.51 1013.81 1014.06 1014.25 1014.38 1014.50
1009.35 1009.65 1010.09 1010.62 1011.18 1011.69 1012.09 1012.36 1012.51 1012.57 1012.61 1012.68 1012.80 1012.97 1013.18 1013.38 1013.53 1013.62 1013.65 1013.64 1013.63 1013.65 1013.72 1013.84 1013.97 1014.06 1014.06 1013.94 1013.70 1013.37 1013.00 1012.68 1012.46 1012.40 1012.51 1012.75 1013.08 1013.44 1013.76 1014.02 1014.20 1014.33 1014.45
1009.70 1010.02 1010.46 1010.98 1011.50 1011.96 1012.31 1012.53 1012.64 1012.70 1012.75 1012.83 1012.97 1013.17 1013.38 1013.57 1013.70 1013.77 1013.77 1013.74 1013.73 1013.75 1013.84 1013.97 1014.10 1014.18 1014.16 1014.00 1013.71 1013.33 1012.93 1012.58 1012.36 1012.31 1012.43 1012.70 1013.04 1013.40 1013.73 1013.97 1014.14 1014.25 1014.34
1010.15 1010.46 1010.87 1011.33 1011.78 1012.16 1012.44 1012.60 1012.69 1012.73 1012.80 1012.91 1013.09 1013.30 1013.53 1013.72 1013.85 1013.89 1013.88 1013.84 1013.81 1013.83 1013.91 1014.03 1014.15 1014.21 1014.17 1013.98 1013.67 1013.27 1012.87 1012.53 1012.32 1012.29 1012.43 1012.71 1013.06 1013.41 1013.71 1013.93 1014.06 1014.13 1014.19
1010.66 1010.93 1011.29 1011.67 1012.03 1012.32 1012.51 1012.61 1012.66 1012.70 1012.78 1012.93 1013.14 1013.38 1013.63 1013.82 1013.95 1013.98 1013.95 1013.89 1013.85 1013.86 1013.91 1014.01 1014.11 1014.14 1014.07 1013.87 1013.56 1013.18 1012.80 1012.50 1012.32 1012.33 1012.49 1012.77 1013.11 1013.44 1013.71 1013.88 1013.97 1014.00 1014.03
1011.18 1011.42 1011.70 1012.00 1012.26 1012.45 1012.56 1012.60 1012.62 1012.65 1012.74 1012.91 1013.14 1013.41 1013.66 1013.87 1013.99 1014.02 1013.98 1013.91 1013.84 1013.82 1013.84 1013.90 1013.96 1013.96 1013.88 1013.68 1013.39 1013.05 1012.72 1012.47 1012.35 1012.38 1012.56 1012.85 1013.17 1013.47 1013.70 1013.84 1013.90 1013.89 1013.89
1011.67 1011.88 1012.10 1012.32 1012.49 1012.60 1012.64 1012.63 1012.62 1012.64 1012.72 1012.89 1013.13 1013.39 1013.65 1013.85 1013.97 1014.00 1013.95 1013.87 1013.78 1013.73 1013.72 1013.73 1013.74 1013.71 1013.61 1013.42 1013.16 1012.87 1012.61 1012.42 1012.35 1012.42 1012.62 1012.90 1013.20 1013.48 1013.69 1013.80 1013.84 1013.83 1013.81
1012.08 1012.27 1012.45 1012.62 1012.73 1012.78 1012.77 1012.73 1012.69 1012.69 1012.76 1012.91 1013.12 1013.36 1013.60 1013.79 1013.90 1013.93 1013.88 1013.80 1013.71 1013.63 1013.57 1013.54 1013.50 1013.43 1013.31 1013.13 1012.90 1012.66 1012.46 1012.33 1012.31 1012.41 1012.62 1012.89 1013.18 1013.44 1013.64 1013.76 1013.81 1013.81 1013.81
1012.35 1012.55 1012.72 1012.86 1012.95 1012.98 1012.95 1012.90 1012.85 1012.83 1012.87 1012.98 1013.14 1013.34 1013.53 1013.69 1013.79 1013.83 1013.80 1013.73 1013.64 1013.55 1013.46 1013.39 1013.30 1013.19 1013.04 1012.85 1012.65 1012.45 1012.29 1012.21 1012.22 1012.34 1012.55 1012.81 1013.09 1013.34 1013.55 1013.69 1013.79 1013.85 1013.90
1012.47 1012.69 1012.88 1013.02 1013.12 1013.16 1013.15 1013.11 1013.06 1013.03 1013.03 1013.09 1013.18 1013.31 1013.45 1013.58 1013.67 1013.72 1013.71 1013.68 1013.61 1013.52 1013.42 1013.31 1013.18 1013.02 1012.84 1012.64 1012.44 1012.26 1012.13 1012.07 1012.10 1012.22 1012.41 1012.65 1012.91 1013.17 1013.40 1013.60 1013.76 1013.90 1014.04
1012.42 1012.66 1012.87 1013.04 1013.18 1013.26 1013.30 1013.30 1013.27 1013.24 1013.21 1013.21 1013.23 1013.29 1013.37 1013.45 1013.54 1013.61 1013.65 1013.66 1013.63 1013.57 1013.48 1013.34 1013.18 1012.98 1012.76 1012.53 1012.32 1012.14 1012.01 1011.96 1011.98 1012.07 1012.24 1012.45 1012.69 1012.94 1013.20 1013.45 1013.70 1013.94 1014.17
1012.22 1012.48 1012.71 1012.92 1013.10 1013.24 1013.35 1013.41 1013.42 1013.40 1013.36 1013.31 1013.27 1013.26 1013.28 1013.33 1013.42 1013.51 1013.61 1013.68 1013.71 1013.69 1013.61 1013.47 1013.28 1013.05 1012.79 1012.54 1012.30 1012.11 1011.98 1011.91 1011.91 1011.97 1012.08 1012.25 1012.45 1012.69 1012.96 1013.26 1013.58 1013.91 1014.23
1011.92 1012.18 1012.42 1012.65 1012.88 1013.09 1013.27 1013.40 1013.47 1013.49 1013.44 1013.37 1013.28 1013.21 1013.19 1013.22 1013.30 1013.43 1013.58 1013.72 1013.81 1013.85 1013.80 1013.67 1013.47 1013.21 1012.93 1012.66 1012.41 1012.21 1012.06 1011.97 1011.94 1011.95 1012.01 1012.11 1012.26 1012.46 1012.72 1013.03 1013.39 1013.79 1014.19
1011.58 1011.82 1012.05 1012.29 1012.54 1012.81 1013.06 1013.27 1013.42 1013.48 1013.46 1013.38 1013.27 1013.16 1013.10 1013.11 1013.20 1013.36 1013.56 1013.75 1013.91 1014.00 1013.99 1013.88 1013.69 1013.43 1013.14 1012.86 1012.61 1012.41 1012.27 1012.17 1012.10 1012.07 1012.07 1012.09 1012.16 1012.30 1012.50 1012.79 1013.15 1013.57 1014.02
1011.26 1011.46 1011.66 1011.89 1012.16 1012.47 1012.78 1013.06 1013.27 1013.39 1013.42 1013.35 1013.24 1013.11 1013.04 1013.03 1013.12 1013.29 1013.52 1013.76 1013.97 1014.10 1014.13 1014.05 1013.88 1013.64 1013.37 1013.12 1012.89 1012.71 1012.58 1012.49 1012.41 1012.34 1012.27 1012.22 1012.19 1012.23 1012.35 1012.56 1012.88 1013.29 1013.74
1010.98 1011.15 1011.32 1011.52 1011.79 1012.11 1012.47 1012.80 1013.08 1013.27 1013.34 1013.31 1013.21 1013.08 1012.99 1012.97 1013.05 1013.22 1013.46 1013.73 1013.96 1014.13 1014.19 1014.15 1014.01 1013.80 1013.58 1013.37 1013.19 1013.06 1012.97 1012.90 1012.83 1012.74 1012.61 1012.48 1012.35 1012.27 1012.28 1012.39 1012.62 1012.96 1013.39
1010.77 1010.91 1011.05 1011.23 1011.48 1011.80 1012.18 1012.56 1012.89 1013.14 1013.26 1013.27 1013.19 1013.07 1012.97 1012.93 1012.99 1013.14 1013.37 1013.63 1013.87 1014.05 1014.14 1014.13 1014.03 1013.88 1013.71 1013.56 1013.46 1013.40 1013.37 1013.35 1013.30 1013.20 1013.04 1012.84 1012.61 1012.42 1012.29 1012.27 1012.39 1012.64 1013.00
1010.58 1010.73 1010.86 1011.02 1011.25 1011.57 1011.95 1012.35 1012.72 1013.01 1013.18 1013.23 1013.18 1013.08 1012.97 1012.90 1012.92 1013.04 1013.23 1013.46 1013.69 1013.87 1013.97 1013.99 1013.94 1013.84 1013.74 1013.67 1013.64 1013.66 1013.70 1013.74 1013.74 1013.65 1013.48 1013.23 1012.92 1012.62 1012.37 1012.22 1012.21 1012.35 1012.62
1010.36 1010.55 1010.69 1010.85 1011.07 1011.38 1011.75 1012.16 1012.56 1012.88 1013.09 1013.18 1013.15 1013.06 1012.94 1012.85 1012.83 1012.90 1013.04 1013.23 1013.43 1013.60 1013.71 1013.75 1013.73 1013.69 1013.65 1013.65 1013.69 1013.79 1013.90 1014.00 1014.05 1014.00 1013.83 1013.56 1013.21 1012.83 1012.47 1012.21 1012.07 1012.10 1012.28
1010.07 1010.32 1010.51 1010.68 1010.90 1011.20 1011.56 1011.96 1012.36 1012.71 1012.94 1013.06 1013.06 1012.98 1012.86 1012.75 1012.69 1012.71 1012.80 1012.95 1013.12 1013.27 1013.38 1013.44 1013.45 1013.45 1013.46 1013.50 1013.60 1013.75 1013.92 1014.08 1014.17 1014.16 1014.02 1013.76 1013.39 1012.97 1012.55 1012.20 1011.96 1011.88 1011.96
1009.68 1010.01 1010.25 1010.46 1010.68 1010.97 1011.31 1011.71 1012.10 1012.45 1012.71 1012.85 1012.87 1012.80 1012.68 1012.56 1012.48 1012.46 1012.52 1012.63 1012.77 1012.91 1013.02 1013.09 1013.13 1013.15 1013.19 1013.26 1013.38 1013.55 1013.75 1013.94 1014.07 1014.10 1014.01 1013.78 1013.43 1013.01 1012.56 1012.16 1011.84 1011.68 1011.67
Thickness
5811 5809 5806 5804 5802 5801 5800 5799 5799 5798 5797 5796 5795 5794 5793 5792 5792 5791 5789 5788 5787 5786 5784 5783 5781 5780 5780 5779 5778 5778 5777 5776 5775 5774 5773 5772 5771 5770 5768 5767 5766 5765 5763
5815 5811 5807 5805 5803 5801 5800 5799 5798 5797 5796 5795 5794 5793 5792 5791 5790 5790 5788 5787 5786 5784 5783 5782 5781 5780 5779 5778 5777 5777 5776 5775 5774 5773 5772 5771 5770 5769 5768 5767 5766 5764 5762
5817 5812 5808 5805 5803 5802 5800 5799 5798 5797 5795 5794 5793 5793 5792 5791 5789 5789 5787 5786 5785 5784 5782 5781 5780 5779 5779 5778 5777 5776 5775 5774 5774 5773 5772 5771 5770 5768 5767 5766 5764 5763 5761
5820 5815 5810 5806 5804 5802 5801 5799 5797 5796 5795 5794 5793 5792 5791 5790 5789 5788 5787 5786 5785 5783 5782 5780 5779 5778 5778 5777 5776 5776 5775 5774 5773 5773 5772 5772 5771 5769 5767 5765 5763 5762 5760
5822 5816 5809 5806 5804 5802 5801 5799 5797 5796 5795 5794 5793 5792 5790 5789 5788 5787 5786 5785 5784 5783 5781 5780 5778 5778 5777 5776 5776 5775 5774 5774 5773 5773 5773 5773 5771 5769 5767 5765 5763 5761 5760
5823 5817 5810 5807 5804 5802 5800 5799 5797 5796 5794 5793 5792 5791 5790 5789 5788 5787 5786 5784 5783 5782 5780 5779 5778 5777 5776 5776 5775 5775 5774 5774 5773 5773 5774 5773 5770 5768 5766 5764 5762 5761 5759
5824 5818 5811 5808 5805 5803 5801 5799 5798 5796 5794 5793 5792 5791 5790 5789 5788 5786 5785 5784 5782 5781 5780 5778 5777 5777 5776 5775 5775 5775 5774 5774 5774 5775 5775 5773 5771 5768 5766 5764 5762 5760 5759
5826 5819 5813 5809 5806 5804 5802 5800 5798 5796 5795 5793 5792 5791 5790 5789 5788 5786 5785 5784 5782 5780 5779 5778 5777 5776 5776 5775 5775 5774 5774 5774 5775 5776 5776 5774 5771 5768 5766 5764 5762 5761 5759
5830 5822 5815 5811 5808 5805 5803 5801 5799 5797 5795 5794 5792 5791 5790 5788 5787 5786 5785 5784 5782 5781 5780 5779 5778 5777 5776 5776 5775 5774 5774 5775 5775 5776 5776 5773 5771 5769 5766 5764 5762 5761 5759
5829 5825 5819 5816 5812 5808 5805 5802 5800 5797 5796 5794 5793 5792 5790 5789 5788 5786 5785 5784 5783 5782 5780 5780 5778 5778 5777 5776 5775 5775 5775 5775 5776 5776 5775 5773 5770 5769 5767 5765 5763 5761 5759
5826 5825 5822 5819 5815 5812 5809 5805 5801 5799 5796 5795 5793 5792 5791 5791 5789 5788 5786 5785 5784 5782 5781 5780 5779 5778 5778 5777 5776 5776 5776 5776 5777 5776 5774 5773 5771 5769 5767 5765 5763 5762 5760
5822 5823 5823 5820 5817 5814 5812 5807 5804 5802 5798 5796 5795 5793 5792 5792 5791 5790 5788 5786 5784 5783 5782 5780 5780 5779 5778 5778 5778 5777 5777 5778 5777 5775 5773 5772 5770 5769 5767 5766 5764 5762 5761
5825 5824 5823 5821 5818 5815 5813 5810 5807 5805 5801 5798 5796 5795 5794 5793 5791 5790 5788 5786 5785 5784 5782 5781 5780 5780 5780 5779 5778 5778 5777 5777 5776 5775 5773 5772 5770 5769 5768 5766 5765 5763 5761
5826 5823 5823 5821 5817 5814 5813 5811 5807 5805 5802 5799 5796 5794 5793 5792 5790 5789 5787 5787 5786 5785 5784 5783 5781 5781 5781 5780 5779 5778 5777 5776 5775 5774 5772 5771 5770 5769 5768 5767 5765 5763 5761
5826 5824 5823 5821 5816 5814 5812 5810 5808 5805 5803 5800 5797 5793 5790 5789 5788 5787 5785 5784 5785 5785 5784 5782 5781 5780 5780 5779 5779 5778 5777 5775 5775 5773 5771 5770 5770 5769 5768 5767 5765 5763 5761
5826 5824 5823 5820 5817 5814 5811 5809 5807 5806 5803 5800 5797 5793 5791 5788 5787 5785 5783 5783 5783 5783 5783 5782 5781 5779 5778 5777 5776 5776 5776 5774 5773 5772 5771 5769 5768 5768 5767 5766 5764 5763 5761
5828 5826 5823 5821 5818 5814 5811 5809 5808 5806 5804 5800 5796 5792 5790 5788 5786 5785 5783 5782 5782 5782 5781 5781 5779 5778 5776 5775 5774 5774 5774 5773 5772 5771 5770 5769 5767 5766 5765 5764 5763 5762 5761
5831 5826 5824 5823 5818 5814 5812 5809 5808 5806 5803 5800 5796 5792 5789 5787 5786 5784 5783 5781 5780 5780 5779 5778 5776 5774 5772 5771 5771 5772 5772 5771 5771 5770 5769 5768 5766 5766 5764 5763 5762 5761 5760
5832 5827 5823 5822 5818 5815 5812 5810 5808 5805 5802 5799 5795 5792 5788 5786 5784 5783 5781 5780 5780 5779 5777 5776 5773 5771 5769 5769 5770 5770 5770 5770 5769 5769 5768 5767 5766 5765 5764 5762 5760 5760 5758
5834 5829 5825 5822 5818 5815 5812 5808 5805 5803 5801 5798 5794 5791 5788 5785 5783 5781 5780 5779 5778 5776 5774 5772 5770 5770 5768 5767 5768 5768 5769 5769 5768 5768 5767 5767 5765 5764 5762 5761 5759 5758 5757
5834 5828 5824 5819 5817 5814 5809 5805 5801 5798 5797 5796 5793 5790 5787 5785 5783 5781 5779 5778 5776 5774 5771 5770 5768 5767 5766 5766 5763 5762 5765 5768 5767 5767 5766 5765 5764 5763 5761 5760 5758 5757 5755
5833 5828 5823 5819 5816 5813 5810 5807 5803 5800 5797 5795 5793 5790 5787 5784 5782 5781 5778 5776 5775 5772 5769 5768 5766 5763 5764 5765 5759 5755 5752 5755 5761 5766 5764 5763 5762 5761 5760 5760 5758 5756 5754
5833 5829 5825 5820 5817 5814 5812 5808 5804 5799 5795 5792 5789 5786 5785 5784 5782 5779 5777 5775 5774 5771 5767 5766 5764 5761 5759 5761 5761 5754 5746 5743 5750 5758 5761 5761 5760 5758 5758 5758 5757 5755 5754
5836 5833 5827 5822 5818 5814 5811 5806 5800 5794 5789 5788 5787 5785 5783 5782 5780 5777 5775 5773 5771 5769 5766 5765 5763 5761 5758 5755 5757 5758 5755 5751 5745 5745 5752 5756 5757 5756 5755 5756 5755 5753 5751
5840 5835 5829 5823 5818 5814 5811 5806 5800 5795 5792 5790 5787 5783 5781 5780 5778 5775 5772 5770 5768 5766 5764 5762 5760 5758 5757 5753 5753 5753 5753 5752 5750 5743 5740 5745 5749 5752 5753 5753 5752 5751 5749
5841 5836 5830 5822 5816 5813 5809 5805 5800 5794 5791 5786 5783 5780 5778 5777 5774 5772 5770 5767 5765 5762 5760 5758 5756 5755 5753 5752 5750 5750 5748 5746 5744 5743 5739 5740 5741 5746 5750 5750 5749 5748 5746